GW1859 Weather Reports


time (UTC)temp
F
wind
direction
speed
knots
gust
knots
rain 1hr
in
rain 24hr
in
rain mn
in
humidity
%
barometer
mb
20260504204626 89 150 2.6 5.2 0.00 0.00 0.00 34 1003.6
20260504204124 89 118 0.9 0.9 0.00 0.00 0.00 36 1003.7
20260504203622 88 191 2.6 4.3 0.00 0.00 0.00 35 1003.3
20260504203119 89 191 7.0 8.7 0.00 0.00 0.00 34 1003.6
20260504202614 90 151 0.0 0.0 0.00 0.00 0.00 35 1003.6
20260504202111 90 168 0.0 0.0 0.00 0.00 0.00 35 1003.7
20260504201608 89 162 0.0 0.9 0.00 0.00 0.00 33 1003.5
20260504201106 88 239 4.3 6.1 0.00 0.00 0.00 34 1003.8
20260504200603 88 188 0.9 1.7 0.00 0.00 0.00 35 1003.8
20260504200059 88 195 1.7 2.6 0.00 0.00 0.00 35 1003.9
20260504195555 87 147 0.9 0.9 0.00 0.00 0.00 35 1003.9
20260504195051 87 121 0.0 0.9 0.00 0.00 0.00 37 1004.5
20260504194548 88 155 0.0 0.0 0.00 0.00 0.00 36 1004.2
20260504194043 87 221 2.6 4.3 0.00 0.00 0.00 35 1004.2
20260504193540 88 199 0.9 1.7 0.00 0.00 0.00 36 1004.7
20260504193039 88 157 1.7 1.7 0.00 0.00 0.00 34 1004.3
20260504192537 88 134 0.0 0.0 0.00 0.00 0.00 37 1004.8
20260504192035 87 123 1.7 1.7 0.00 0.00 0.00 37 1004.7
20260504191533 87 131 0.0 0.0 0.00 0.00 0.00 38 1004.8
20260504191028 86 146 0.9 0.9 0.00 0.00 0.00 37 1004.9
20260504190525 86 182 2.6 2.6 0.00 0.00 0.00 36 1004.7
20260504190021 86 174 1.7 1.7 0.00 0.00 0.00 37 1004.7
20260504185518 85 167 1.7 1.7 0.00 0.00 0.00 38 1005.2
20260504185015 86 96 2.6 2.6 0.00 0.00 0.00 37 1005.1
20260504184510 86 270 1.7 1.7 0.00 0.00 0.00 37 1004.9
20260504184006 85 216 1.7 1.7 0.00 0.00 0.00 39 1005.0
20260504183503 85 165 0.0 0.0 0.00 0.00 0.00 38 1005.3
20260504183001 85 272 3.5 4.3 0.00 0.00 0.00 39 1005.0
20260504182458 85 136 0.0 0.0 0.00 0.00 0.00 39 1005.3
20260504181955 84 139 0.0 0.0 0.00 0.00 0.00 40 1005.4
20260504181452 82 123 1.7 4.3 0.00 0.00 0.00 40 1005.5
20260504180951 82 8 2.6 4.3 0.00 0.00 0.00 40 1005.4
20260504180449 81 267 1.7 2.6 0.00 0.00 0.00 41 1005.5
20260504175947 81 273 0.9 1.7 0.00 0.00 0.00 42 1005.7
20260504175444 81 180 0.0 0.0 0.00 0.00 0.00 42 1005.5
20260504174941 81 110 0.0 0.0 0.00 0.00 0.00 44 1005.5
20260504174439 81 128 0.9 0.9 0.00 0.00 0.00 42 1005.6
20260504173936 80 150 0.0 0.0 0.00 0.00 0.00 44 1005.8
20260504173432 80 141 3.5 5.2 0.00 0.00 0.00 44 1005.6
20260504172930 79 157 0.9 1.7 0.00 0.00 0.00 45 1005.6
20260504172426 79 279 0.9 1.7 0.00 0.00 0.00 43 1006.0
20260504171923 81 208 2.6 2.6 0.00 0.00 0.00 44 1005.7
20260504171420 80 187 3.5 6.1 0.00 0.00 0.00 42 1005.8
20260504170917 80 259 2.6 2.6 0.00 0.00 0.00 44 1005.6
20260504170413 78 235 0.9 4.3 0.00 0.00 0.00 45 1005.5
20260504160332 74 137 3.5 5.2 0.00 0.00 0.00 50 1005.7
20260504150756 71 160 2.6 4.3 0.00 0.00 0.00 54 1005.8
20260504150253 71 339 3.5 6.1 0.00 0.00 0.00 54 1006.0
20260504141223 67 263 1.7 1.7 0.00 0.00 0.00 58 1006.3
20260504140720 67 243 4.3 5.2 0.00 0.00 0.00 58 1006.2
20260504140215 67 156 3.5 4.3 0.00 0.00 0.00 57 1006.0
20260504130644 61 119 0.9 0.9 0.00 0.00 0.00 65 1006.2
20260504130140 61 210 2.6 2.6 0.00 0.00 0.00 65 1006.2
20260504120104 60 218 1.7 1.7 0.00 0.00 0.00 65 1006.0
20260504110532 61 203 0.9 0.9 0.00 0.00 0.00 61 1006.3
20260504100448 63 141 1.7 1.7 0.00 0.00 0.00 57 1006.7
20260504081841 65 113 3.5 5.2 0.00 0.00 0.00 53 1007.6
20260504081338 65 204 3.5 6.1 0.00 0.00 0.00 53 1007.3
20260504080833 65 155 2.6 5.2 0.00 0.00 0.00 52 1007.5
20260504080331 65 169 1.7 4.3 0.00 0.00 0.00 52 1007.7
20260504070258 67 183 1.7 1.7 0.00 0.00 0.00 50 1008.4
20260504060219 69 183 3.5 6.1 0.00 0.00 0.00 47 1008.8
20260504050646 70 214 5.2 6.1 0.00 0.00 0.00 45 1008.9
20260504050143 70 276 6.1 11.3 0.00 0.00 0.00 45 1009.0
20260504045641 70 185 6.1 11.3 0.00 0.00 0.00 45 1008.9
20260504045140 70 217 3.5 5.2 0.00 0.00 0.00 44 1008.7
20260504044638 70 214 3.5 5.2 0.00 0.00 0.00 44 1008.9
20260504044135 70 158 4.3 6.1 0.00 0.00 0.00 44 1008.7
20260504043632 70 86 4.3 7.0 0.00 0.00 0.00 43 1008.7
20260504043129 70 96 4.3 6.1 0.00 0.00 0.00 43 1008.8
20260504042626 71 186 3.5 6.1 0.00 0.00 0.00 42 1008.7
20260504042123 71 172 3.5 5.2 0.00 0.00 0.00 42 1008.9
20260504041619 70 201 4.3 8.7 0.00 0.00 0.00 42 1009.1
20260504041115 70 157 3.5 7.0 0.00 0.00 0.00 41 1009.0
20260504040613 70 162 2.6 4.3 0.00 0.00 0.00 41 1009.0
20260504040109 70 197 2.6 4.3 0.00 0.00 0.00 41 1009.2
20260504035606 70 83 2.6 4.3 0.00 0.00 0.00 41 1009.0
20260504035102 70 203 1.7 1.7 0.00 0.00 0.00 41 1008.9
20260504034600 69 202 1.7 1.7 0.00 0.00 0.00 41 1009.1
20260504034057 69 197 2.6 2.6 0.00 0.00 0.00 41 1009.0
20260504033555 70 217 2.6 4.3 0.00 0.00 0.00 41 1009.0
20260504033052 70 151 1.7 1.7 0.00 0.00 0.00 40 1009.1
20260504032549 69 162 1.7 2.6 0.00 0.00 0.00 40 1009.0
20260504032046 69 132 2.6 2.6 0.00 0.00 0.00 41 1009.1
20260504031543 69 107 0.9 0.9 0.00 0.00 0.00 40 1009.0
20260504031039 69 117 0.9 1.7 0.00 0.00 0.00 40 1009.2
20260504030536 69 126 0.0 0.0 0.00 0.00 0.00 41 1009.2
20260504030032 70 158 0.9 0.9 0.00 0.00 0.00 40 1009.0
20260504025530 70 199 0.0 0.9 0.00 0.00 0.00 39 1008.9
20260504025026 70 112 0.0 0.0 0.00 0.00 0.00 39 1008.9
20260504024523 71 164 1.7 2.6 0.00 0.00 0.00 38 1008.9
20260504024020 71 119 0.0 0.0 0.00 0.00 0.00 38 1009.1
20260504023517 72 105 0.0 0.9 0.00 0.00 0.00 38 1009.0
20260504023013 72 181 1.7 2.6 0.00 0.00 0.00 37 1008.9
20260504022509 72 177 1.7 2.6 0.00 0.00 0.00 36 1009.0
20260504022006 72 157 0.9 1.7 0.00 0.00 0.00 37 1009.1
20260504021503 72 133 0.0 0.9 0.00 0.00 0.00 37 1008.9
20260504021000 72 130 0.0 0.0 0.00 0.00 0.00 37 1008.9
20260504020456 72 232 0.0 1.7 0.00 0.00 0.00 38 1008.9
20260504015953 72 130 0.0 0.0 0.00 0.00 0.00 37 1008.9
20260504015449 72 141 0.0 0.0 0.00 0.00 0.00 37 1009.1
20260504014945 72 133 0.0 0.0 0.00 0.00 0.00 37 1009.0
20260504014441 72 130 0.0 0.0 0.00 0.00 0.00 37 1009.0
20260504013938 73 137 0.0 0.0 0.00 0.00 0.00 37 1008.9
20260504013437 73 209 0.9 1.7 0.00 0.00 0.00 36 1008.8
20260504012933 74 133 0.0 0.0 0.00 0.00 0.00 36 1008.9
20260504012431 74 162 0.0 0.9 0.00 0.00 0.00 35 1009.0
20260504011928 75 146 0.0 0.9 0.00 0.00 0.00 35 1009.0
20260504011425 76 191 0.9 1.7 0.00 0.00 0.00 34 1008.9
20260504010920 76 141 0.9 1.7 0.00 0.00 0.00 33 1009.1
20260504010417 77 339 0.0 0.0 0.00 0.00 0.00 33 1008.9
20260504005913 77 148 0.0 0.9 0.00 0.00 0.00 32 1009.0
20260504005410 78 138 0.9 0.9 0.00 0.00 0.00 31 1009.1
20260504004908 78 161 2.6 4.3 0.00 0.00 0.00 30 1009.0
20260504004405 79 135 2.6 2.6 0.00 0.00 0.00 29 1009.2
20260504003902 79 163 0.9 1.7 0.00 0.00 0.00 29 1009.1
20260504003358 80 153 0.9 0.9 0.00 0.00 0.00 28 1009.2
20260504002855 80 0 0.9 1.7 0.00 0.00 0.00 28 1009.3
20260504002352 81 221 2.6 4.3 0.00 0.00 0.00 27 1009.3
20260504001849 81 157 2.6 2.6 0.00 0.00 0.00 27 1009.5
20260504001347 81 179 4.3 7.8 0.00 0.00 0.00 27 1009.6
20260504000843 81 139 0.9 1.7 0.00 0.00 0.00 27 1009.9
20260504000340 82 185 3.5 4.3 0.00 0.00 0.00 26 1009.7
20260503235838 82 197 2.6 2.6 0.00 0.00 0.00 26 1009.8
20260503235335 82 101 2.6 4.3 0.00 0.00 0.00 26 1009.8
20260503234833 82 199 4.3 5.2 0.00 0.00 0.00 26 1009.9
20260503234330 83 183 2.6 5.2 0.00 0.00 0.00 25 1009.8
20260503233828 83 167 3.5 6.1 0.00 0.00 0.00 25 1009.7
20260503233323 83 113 3.5 5.2 0.00 0.00 0.00 25 1009.7
20260503232820 83 174 4.3 6.1 0.00 0.00 0.00 24 1010.0
20260503232318 83 171 5.2 6.1 0.00 0.00 0.00 24 1010.0
20260503231816 84 270 4.3 5.2 0.00 0.00 0.00 24 1010.1
20260503231312 84 235 4.3 6.1 0.00 0.00 0.00 23 1009.8
20260503230808 84 114 2.6 4.3 0.00 0.00 0.00 23 1009.9
20260503230306 86 168 3.5 4.3 0.00 0.00 0.00 24 1010.1
20260503225803 85 180 6.1 7.8 0.00 0.00 0.00 23 1010.0
20260503225258 86 172 2.6 4.3 0.00 0.00 0.00 24 1010.1
20260503224755 86 196 6.1 7.8 0.00 0.00 0.00 23 1010.1
20260503224253 86 193 5.2 7.0 0.00 0.00 0.00 23 1010.0
20260503223750 86 253 4.3 6.1 0.00 0.00 0.00 23 1010.1
20260503223248 86 161 2.6 4.3 0.00 0.00 0.00 23 1010.2
20260503222743 86 172 3.5 5.2 0.00 0.00 0.00 22 1010.3
20260503222242 86 223 2.6 5.2 0.00 0.00 0.00 22 1010.4
20260503221740 87 191 4.3 6.1 0.00 0.00 0.00 21 1010.3
20260503221237 87 129 3.5 5.2 0.00 0.00 0.00 20 1010.5
20260503220734 86 225 1.7 2.6 0.00 0.00 0.00 22 1010.4
20260503220231 87 195 3.5 8.7 0.00 0.00 0.00 21 1010.2
20260503215727 87 175 2.6 4.3 0.00 0.00 0.00 21 1010.5
20260503215224 87 285 2.6 6.1 0.00 0.00 0.00 20 1010.4
20260503214723 87 149 2.6 2.6 0.00 0.00 0.00 21 1010.7
20260503214219 86 97 3.5 5.2 0.00 0.00 0.00 20 1010.7
20260503213717 86 218 1.7 2.6 0.00 0.00 0.00 22 1010.6
20260503213214 88 208 2.6 4.3 0.00 0.00 0.00 22 1010.7
20260503212711 88 210 2.6 4.3 0.00 0.00 0.00 22 1010.9
20260503212209 87 207 2.6 4.3 0.00 0.00 0.00 21 1010.9
20260503211706 88 215 2.6 2.6 0.00 0.00 0.00 20 1011.0
20260503211202 88 155 4.3 6.1 0.00 0.00 0.00 20 1011.3
20260503210658 88 159 7.0 13.9 0.00 0.00 0.00 20 1011.4
20260503210155 87 259 1.7 2.6 0.00 0.00 0.00 21 1011.3
20260503205650 88 213 2.6 4.3 0.00 0.00 0.00 19 1011.3
20260503205146 88 185 2.6 4.3 0.00 0.00 0.00 21 1011.3